| time (UTC) | temp F | wind direction | speed MPH | gust MPH | rain 1hr in | rain 24hr in | rain mn in | humidity % | barometer mb |
| 20260509070045 | 40 | 75 | 0.0 | 1.0 | 0.00 | 0.02 | 0.00 | 1 | 1011.3 |
| 20260509064546 | 40 | 75 | 0.0 | 2.0 | 0.00 | 0.02 | 0.00 | 1 | 1011.5 |
| 20260509063036 | 39 | 75 | 0.0 | 2.0 | 0.00 | 0.02 | 0.00 | 1 | 1011.8 |
| 20260509061531 | 40 | 142 | 0.0 | 1.0 | 0.00 | 0.02 | 0.00 | 1 | 1011.9 |
| 20260509060027 | 41 | 131 | 0.0 | 2.0 | 0.00 | 0.02 | 0.00 | 1 | 1012.1 |
| 20260509054530 | 41 | 96 | 0.0 | 2.0 | 0.00 | 0.02 | 0.00 | 1 | 1012.1 |
| 20260509053018 | 42 | 90 | 0.0 | 1.0 | 0.00 | 0.02 | 0.00 | 1 | 1012.4 |
| 20260509051513 | 42 | 90 | 0.0 | 2.0 | 0.00 | 0.02 | 0.00 | 1 | 1012.5 |
| 20260509050012 | 42 | 101 | 0.0 | 2.0 | 0.00 | 0.02 | 0.00 | 1 | 1012.6 |
| 20260509044506 | 42 | 98 | 0.0 | 2.0 | 0.00 | 0.02 | 0.00 | 1 | 1012.7 |
| 20260509043105 | 42 | 92 | 0.0 | 1.0 | 0.00 | 0.02 | 0.00 | 1 | 1012.8 |
| 20260509041556 | 42 | 92 | 0.0 | 3.0 | 0.00 | 0.02 | 0.00 | 1 | 1012.8 |
| 20260509034548 | 41 | 92 | 0.0 | 0.0 | 0.00 | 0.02 | 0.02 | 1 | 1012.8 |
| 20260509033043 | 41 | 92 | 0.0 | 0.0 | 0.00 | 0.02 | 0.02 | 1 | 1012.9 |
| 20260509031539 | 42 | 92 | 0.0 | 1.0 | 0.00 | 0.02 | 0.02 | 1 | 1012.8 |
| 20260509030039 | 42 | 92 | 0.0 | 1.0 | 0.00 | 0.02 | 0.02 | 3 | 1012.9 |
| 20260509024530 | 42 | 92 | 0.0 | 0.0 | 0.00 | 0.02 | 0.02 | 6 | 1012.9 |
| 20260509023027 | 42 | 92 | 1.0 | 3.0 | 0.00 | 0.02 | 0.02 | 6 | 1013.0 |
| 20260509021524 | 43 | 119 | 0.0 | 2.0 | 0.00 | 0.02 | 0.02 | 3 | 1013.1 |
| 20260509020017 | 44 | 119 | 0.0 | 1.0 | 0.00 | 0.02 | 0.02 | 1 | 1013.2 |
| 20260509014514 | 44 | 119 | 0.0 | 2.0 | 0.00 | 0.02 | 0.02 | 22 | 1013.1 |
| 20260509013025 | 44 | 90 | 1.0 | 2.0 | 0.00 | 0.02 | 0.02 | 25 | 1012.9 |
| 20260509011504 | 45 | 103 | 0.0 | 2.0 | 0.00 | 0.02 | 0.02 | 49 | 1012.6 |
| 20260509010057 | 48 | 115 | 0.0 | 1.0 | 0.00 | 0.02 | 0.02 | 59 | 1012.4 |
| 20260509004611 | 48 | 115 | 0.0 | 2.0 | 0.00 | 0.02 | 0.02 | 56 | 1012.2 |
| 20260509003052 | 48 | 88 | 2.0 | 3.0 | 0.00 | 0.02 | 0.02 | 53 | 1012.0 |
| 20260509001545 | 50 | 348 | 0.0 | 2.0 | 0.00 | 0.02 | 0.02 | 56 | 1012.0 |
| 20260509000042 | 52 | 348 | 0.0 | 1.0 | 0.00 | 0.02 | 0.02 | 50 | 1011.9 |
| 20260508234538 | 53 | 329 | 0.0 | 4.0 | 0.00 | 0.02 | 0.02 | 50 | 1011.7 |
| 20260508233033 | 54 | 324 | 1.0 | 3.0 | 0.00 | 0.02 | 0.02 | 49 | 1011.5 |
| 20260508231527 | 54 | 296 | 3.0 | 8.0 | 0.00 | 0.02 | 0.02 | 48 | 1011.5 |
| 20260508230037 | 55 | 325 | 4.0 | 8.0 | 0.00 | 0.02 | 0.02 | 47 | 1011.5 |
| 20260508224519 | 55 | 9 | 0.0 | 2.0 | 0.00 | 0.02 | 0.02 | 46 | 1011.6 |
| 20260508223020 | 55 | 298 | 1.0 | 5.0 | 0.00 | 0.02 | 0.02 | 44 | 1011.6 |
| 20260508221509 | 54 | 13 | 2.0 | 5.0 | 0.00 | 0.02 | 0.02 | 49 | 1011.5 |
| 20260508220012 | 55 | 302 | 3.0 | 10.0 | 0.00 | 0.02 | 0.02 | 43 | 1011.5 |
| 20260508214601 | 55 | 140 | 0.0 | 9.0 | 0.00 | 0.02 | 0.02 | 45 | 1011.7 |
| 20260508213056 | 55 | 42 | 2.0 | 10.0 | 0.00 | 0.02 | 0.02 | 46 | 1011.8 |
| 20260508211552 | 55 | 271 | 4.0 | 11.0 | 0.00 | 0.02 | 0.02 | 48 | 1011.9 |
| 20260508210104 | 55 | 271 | 8.0 | 15.0 | 0.00 | 0.02 | 0.02 | 46 | 1011.9 |
| 20260508204542 | 55 | 292 | 3.0 | 15.0 | 0.00 | 0.02 | 0.02 | 45 | 1012.0 |
| 20260508203038 | 55 | 322 | 7.0 | 13.0 | 0.00 | 0.02 | 0.02 | 49 | 1012.3 |
| 20260508201533 | 54 | 286 | 7.0 | 12.0 | 0.00 | 0.02 | 0.02 | 52 | 1012.5 |
| 20260508200038 | 54 | 301 | 7.0 | 11.0 | 0.00 | 0.02 | 0.02 | 52 | 1012.7 |
| 20260508194524 | 53 | 315 | 5.0 | 13.0 | 0.00 | 0.02 | 0.02 | 53 | 1012.7 |
| 20260508193020 | 54 | 355 | 5.0 | 13.0 | 0.00 | 0.02 | 0.02 | 54 | 1013.0 |
| 20260508191518 | 54 | 300 | 6.0 | 12.0 | 0.00 | 0.02 | 0.02 | 54 | 1013.1 |
| 20260508190012 | 53 | 289 | 5.0 | 12.0 | 0.00 | 0.02 | 0.02 | 53 | 1013.1 |
| 20260508184507 | 53 | 315 | 5.0 | 10.0 | 0.00 | 0.02 | 0.02 | 58 | 1013.2 |
| 20260508183005 | 52 | 279 | 9.0 | 18.0 | 0.00 | 0.02 | 0.02 | 59 | 1013.4 |
| 20260508181607 | 50 | 227 | 2.0 | 13.0 | 0.00 | 0.02 | 0.02 | 58 | 1013.4 |
| 20260508180053 | 51 | 250 | 8.0 | 13.0 | 0.00 | 0.02 | 0.02 | 59 | 1013.6 |
| 20260508174548 | 51 | 12 | 5.0 | 15.0 | 0.00 | 0.02 | 0.02 | 58 | 1013.7 |
| 20260508173048 | 50 | 266 | 8.0 | 14.0 | 0.00 | 0.02 | 0.02 | 59 | 1013.9 |
| 20260508171542 | 50 | 281 | 7.0 | 14.0 | 0.00 | 0.02 | 0.02 | 57 | 1014.1 |
| 20260508170040 | 48 | 271 | 3.0 | 10.0 | 0.00 | 0.02 | 0.02 | 52 | 1014.1 |
| 20260508164533 | 49 | 296 | 8.0 | 13.0 | 0.00 | 0.02 | 0.02 | 54 | 1014.3 |
| 20260508163028 | 47 | 257 | 9.0 | 13.0 | 0.00 | 0.02 | 0.02 | 41 | 1014.6 |
| 20260508161523 | 46 | 268 | 4.0 | 11.0 | 0.00 | 0.02 | 0.02 | 36 | 1014.7 |
| 20260508160021 | 47 | 221 | 7.0 | 13.0 | 0.00 | 0.02 | 0.02 | 14 | 1014.8 |
| 20260508154515 | 45 | 234 | 2.0 | 10.0 | 0.00 | 0.02 | 0.02 | 8 | 1014.7 |
| 20260508153010 | 45 | 267 | 5.0 | 11.0 | 0.00 | 0.02 | 0.02 | 11 | 1014.7 |
| 20260508151511 | 45 | 286 | 4.0 | 8.0 | 0.00 | 0.02 | 0.02 | 1 | 1014.6 |
| 20260508150105 | 44 | 239 | 4.0 | 9.0 | 0.00 | 0.02 | 0.02 | 1 | 1014.8 |
| 20260508144622 | 43 | 288 | 2.0 | 8.0 | 0.00 | 0.02 | 0.02 | 1 | 1014.8 |
| 20260508143106 | 43 | 267 | 3.0 | 7.0 | 0.00 | 0.02 | 0.02 | 1 | 1014.8 |
| 20260508141555 | 42 | 261 | 3.0 | 9.0 | 0.00 | 0.02 | 0.02 | 1 | 1014.6 |
| 20260508140049 | 42 | 295 | 3.0 | 8.0 | 0.01 | 0.02 | 0.02 | 1 | 1014.8 |
| 20260508134542 | 42 | 292 | 4.0 | 8.0 | 0.01 | 0.02 | 0.02 | 1 | 1014.7 |
| 20260508133104 | 42 | 283 | 3.0 | 9.0 | 0.02 | 0.02 | 0.02 | 1 | 1014.7 |
| 20260508131531 | 41 | 276 | 2.0 | 7.0 | 0.02 | 0.02 | 0.02 | 1 | 1014.8 |
| 20260508130027 | 41 | 284 | 5.0 | 7.0 | 0.01 | 0.01 | 0.01 | 1 | 1014.7 |
| 20260508124522 | 42 | 300 | 5.0 | 14.0 | 0.01 | 0.01 | 0.01 | 1 | 1014.8 |
| 20260508123019 | 42 | 299 | 4.0 | 8.0 | 0.00 | 0.00 | 0.00 | 1 | 1014.2 |
| 20260508121514 | 43 | 298 | 5.0 | 12.0 | 0.00 | 0.00 | 0.00 | 2 | 1014.0 |
| 20260508120010 | 44 | 273 | 2.0 | 6.0 | 0.00 | 0.00 | 0.00 | 1 | 1013.6 |
| 20260508114508 | 44 | 217 | 0.0 | 2.0 | 0.00 | 0.00 | 0.00 | 1 | 1013.4 |
| 20260508113001 | 43 | 277 | 1.0 | 4.0 | 0.00 | 0.00 | 0.00 | 1 | 1013.2 |
| 20260508111607 | 43 | 182 | 1.0 | 4.0 | 0.00 | 0.00 | 0.00 | 1 | 1013.2 |
| 20260508110058 | 42 | 201 | 0.0 | 1.0 | 0.00 | 0.00 | 0.00 | 1 | 1013.2 |
| 20260508104548 | 42 | 171 | 0.0 | 2.0 | 0.00 | 0.00 | 0.00 | 1 | 1012.7 |
| 20260508103055 | 42 | 171 | 0.0 | 2.0 | 0.00 | 0.00 | 0.00 | 1 | 1013.0 |
| 20260508101541 | 41 | 194 | 0.0 | 2.0 | 0.00 | 0.00 | 0.00 | 1 | 1013.3 |
| 20260508100035 | 41 | 194 | 0.0 | 1.0 | 0.00 | 0.00 | 0.00 | 1 | 1013.4 |
| 20260508094530 | 40 | 190 | 0.0 | 2.0 | 0.00 | 0.00 | 0.00 | 1 | 1013.6 |
| 20260508093029 | 39 | 180 | 0.0 | 1.0 | 0.00 | 0.00 | 0.00 | 1 | 1013.6 |
| 20260508091522 | 38 | 180 | 0.0 | 1.0 | 0.00 | 0.00 | 0.00 | 1 | 1013.5 |
| 20260508090024 | 38 | 180 | 0.0 | 1.0 | 0.00 | 0.00 | 0.00 | 1 | 1013.5 |
| 20260508084513 | 37 | 51 | 0.0 | 2.0 | 0.00 | 0.00 | 0.00 | 1 | 1013.5 |
| 20260508083009 | 37 | 138 | 0.0 | 0.0 | 0.00 | 0.00 | 0.00 | 1 | 1013.3 |
| 20260508081505 | 37 | 138 | 0.0 | 1.0 | 0.00 | 0.00 | 0.00 | 1 | 1013.3 |
| 20260508080100 | 37 | 121 | 1.0 | 2.0 | 0.00 | 0.00 | 0.00 | 1 | 1013.2 |
| 20260508074556 | 37 | 56 | 0.0 | 2.0 | 0.00 | 0.00 | 0.00 | 1 | 1013.2 |
| 20260508073103 | 38 | 319 | 0.0 | 2.0 | 0.00 | 0.00 | 0.00 | 1 | 1013.1 |
| 20260508071555 | 38 | 319 | 0.0 | 0.0 | 0.00 | 0.00 | 0.00 | 1 | 1013.4 |